User: anonymous   Login
Location: D.A.R.C. Observatory
(36.7133°N, 120.8553°W)
Time: 23:55:56
(UTC-07:00)
Language:

USA 215 - Orbit

View from above orbital plane
View from above orbital plane
View from above satellite
View from above satellite

Ground track
Ground track

The orbit data is extracted from the following two-line orbital elements,

1 37162U 10046A   14301.80514734 0.00000000  00000-0  00000-0 0    04
2 37162 122.9945  68.7294 0005247  29.2731 330.7269 13.41449480    09
Epoch (UTC): 28 October 2014 19:19:24
Eccentricity: 0.0005247
inclination: 122.9945°
perigee height: 1100 km
apogee height: 1108 km
right ascension of ascending node: 68.7294°
argument of perigee: 29.2731°
revolutions per day: 13.41449480
mean anomaly at epoch: 330.7269°
orbit number at epoch: 0

The dashed part of the orbit path shows where the satellite is in the earth's shadow,  

DLR